Weather History for Oxford, CT

Change the Weather History Date:

Monday, December 9, 2013

  Actual Average Record
Temperature  
Mean Temperature 28 °F -  
Max Temperature 33 °F 39 °F 53 °F (2008)
Min Temperature 24 °F 25 °F 6 °F (2002)
Degree Days  
Heating Degree Days 36    
Moisture  
Dew Point 24 °F    
Average Humidity 80    
Maximum Humidity 87    
Minimum Humidity 74    
Precipitation  
Precipitation 0.01 in - - ()
Sea Level Pressure  
Sea Level Pressure 30.13 in    
Wind  
Wind Speed 5 mph (ENE)    
Max Wind Speed 13 mph    
Max Gust Speed 22 mph    
Visibility 4 miles    
Events Fog    
Averages and records for this station are not official NWS values.
T = Trace of Precipitation, MM = Missing Value Source: NWS Daily Summary

Daily Weather History Graph

Daily Weather History Graph

Search for Another Location

Airport:

Trip Planner

Search our weather history database for the weather conditions in past years. The results will help you decide how hot, cold, wet, or windy it might be!

Date:

Astronomy

Dec. 09, 2013 Rise Set
Actual Time 7:07 AM EST 4:22 PM EST
Civil Twilight 6:36 AM EST 4:53 PM EST
Nautical Twilight 6:01 AM EST 5:28 PM EST
Astronomical Twilight 5:27 AM EST 6:02 PM EST
Moon 11:54 AM EST (12/9) No Moon Set
Length of Visible Light 10h 17m
Length of Day
9h 15m
Waxing Crescent, 51% of the Moon is Illuminated
Dec 9
Waxing Crescent
Dec 17
Full
Dec 25
Last Quarter
Jan 1
New
Jan 7
First Quarter

Hourly Weather History & Observations

Time (EST) Temp. Windchill Dew Point Humidity Pressure Visibility Wind Dir Wind Speed Gust Speed Precip Events Conditions
12:15 AM 24.8 °F 16.1 °F 17.6 °F 74% 30.40 in 2.0 mi ENE 8.1 mph - N/A   Overcast
12:35 AM 24.8 °F 16.1 °F 17.6 °F 74% 30.40 in 2.5 mi ENE 8.1 mph - N/A   Overcast
12:55 AM 24.8 °F 16.1 °F 19.4 °F 80% 30.38 in 2.5 mi ENE 8.1 mph - N/A   Overcast
1:15 AM 24.8 °F 16.1 °F 19.4 °F 80% 30.36 in 2.5 mi ENE 8.1 mph - 0.01 in   Overcast
1:35 AM 24.8 °F 15.3 °F 17.6 °F 74% 30.36 in 2.5 mi ENE 9.2 mph - 0.01 in   Overcast
1:55 AM 24.8 °F 14.6 °F 19.4 °F 80% 30.36 in 1.8 mi ENE 10.4 mph - 0.01 in   Overcast
2:15 AM 24.8 °F 16.1 °F 19.4 °F 80% 30.35 in 2.5 mi ENE 8.1 mph 17.3 mph N/A   Overcast
2:35 AM 24.8 °F 14.6 °F 19.4 °F 80% 30.34 in 2.0 mi ENE 10.4 mph - N/A   Overcast
2:55 AM 24.8 °F 15.3 °F 19.4 °F 80% 30.33 in 3.0 mi ENE 9.2 mph - N/A   Overcast
3:15 AM 24.8 °F 13.4 °F 19.4 °F 80% 30.31 in 3.0 mi ENE 12.7 mph 21.9 mph N/A   Overcast
3:35 AM 24.8 °F 15.3 °F 19.4 °F 80% 30.31 in 3.0 mi ENE 9.2 mph 16.1 mph N/A   Overcast
3:55 AM 24.8 °F 14.6 °F 19.4 °F 80% 30.30 in 3.0 mi East 10.4 mph 19.6 mph N/A   Overcast
4:15 AM 24.8 °F 16.1 °F 19.4 °F 80% 30.28 in 3.0 mi ENE 8.1 mph 18.4 mph N/A   Overcast
4:35 AM 24.8 °F - 19.4 °F 80% 30.27 in 3.0 mi Calm Calm - N/A   Overcast
4:55 AM 24.8 °F - 19.4 °F 80% 30.26 in 3.0 mi Calm Calm - N/A   Overcast
5:15 AM 26.6 °F - 19.4 °F 74% 30.24 in 4.0 mi Calm Calm - N/A   Overcast
5:35 AM 26.6 °F - 19.4 °F 74% 30.23 in 5.0 mi Calm Calm - N/A   Overcast
6:45 AM 26.6 °F 20.0 °F 21.2 °F 80% 30.19 in 5.0 mi NE 5.8 mph 17.3 mph N/A   Light Freezing Drizzle
7:45 AM 28.4 °F 19.7 °F 23.0 °F 80% 30.19 in 2.0 mi ENE 9.2 mph - N/A   Light Freezing Drizzle
8:45 AM 28.4 °F 22.2 °F 23.0 °F 80% 30.17 in 2.0 mi NE 5.8 mph - N/A   Overcast
9:45 AM 30.2 °F 21.9 °F 24.8 °F 80% 30.13 in 2.0 mi East 9.2 mph - N/A   Overcast
10:45 AM 30.2 °F - 24.8 °F 80% 30.10 in 1.0 mi Calm Calm - N/A   Light Freezing Rain
11:45 AM 30.2 °F 25.4 °F 26.6 °F 86% 30.04 in 1.0 mi ENE 4.6 mph - N/A   Light Freezing Rain
12:45 PM 32.0 °F 27.5 °F 26.6 °F 80% 29.97 in 1.0 mi East 4.6 mph - N/A   Light Drizzle
1:45 PM 32.0 °F 28.7 °F 26.6 °F 80% 29.97 in 1.0 mi Variable 3.5 mph - N/A   Light Drizzle
2:45 PM 33.8 °F - 28.4 °F 81% 29.94 in 1.0 mi Calm Calm - N/A   Overcast
3:20 PM 33.8 °F - 28.4 °F 81% 29.97 in 0.2 mi Calm Calm - N/A Fog Fog
3:23 PM 33.8 °F - 28.4 °F 81% 29.97 in 1.0 mi Calm Calm - N/A   Overcast
3:27 PM 33.8 °F - 28.4 °F 81% 29.97 in 0.5 mi Calm Calm - N/A Fog Fog
3:45 PM 33.8 °F - 28.4 °F 81% 23.99 in 0.5 mi Calm Calm - N/A Fog Fog
4:45 PM 33.8 °F - 28.4 °F 81% 29.96 in 0.5 mi Calm Calm - N/A   Overcast
5:45 PM 33.8 °F - 28.4 °F 81% 29.95 in 0.2 mi Calm Calm - N/A Fog Fog
6:45 PM 33.8 °F - 28.4 °F 81% 29.94 in 0.2 mi Calm Calm - N/A Fog Fog
7:45 PM 33.8 °F - 30.2 °F 87% 29.96 in 1.0 mi Calm Calm - N/A   Mist
8:45 PM 33.8 °F - 28.4 °F 81% 29.95 in 3.0 mi Calm Calm - N/A   Overcast
9:15 PM 33.8 °F - 28.4 °F 81% 29.96 in 7.0 mi Calm Calm - N/A   Partly Cloudy
9:35 PM 33.8 °F - 28.4 °F 81% 29.96 in 10.0 mi Calm Calm - N/A   Clear
9:55 PM 33.8 °F - 28.4 °F 81% 29.97 in 10.0 mi Calm Calm - N/A   Clear
10:15 PM 33.8 °F - 28.4 °F 81% 29.97 in 10.0 mi Calm Calm - N/A   Clear
10:35 PM 33.8 °F - 28.4 °F 81% 29.96 in 10.0 mi Calm Calm - N/A   Clear
10:55 PM 33.8 °F - 28.4 °F 81% 29.95 in 10.0 mi Calm Calm - N/A   Clear
11:15 PM 33.8 °F - 28.4 °F 81% 29.96 in 10.0 mi Calm Calm - N/A   Clear
11:35 PM 33.8 °F - 28.4 °F 81% 29.96 in 10.0 mi Calm Calm - N/A   Clear
11:55 PM 33.8 °F - 28.4 °F 81% 29.96 in 10.0 mi Calm Calm - N/A   Clear